User: anonymous   Login
Location: Bednik
(45.3500°N, 16.3833°E)
Time: 19:38:40
(UTC+00:00)
Language:

Cosmos 220 Rocket - Orbit

View from above orbital plane
View from above orbital plane
View from above satellite
View from above satellite

Ground track
Ground track

The orbit data is extracted from the following two-line orbital elements,

1  3230U 68040B   20304.13784409  .00000323  00000-0  36732-4 0  9994
2  3230  74.0344 298.5905 0031827 282.0826  77.6790 14.90666016818900
Epoch (UTC): 30 October 2020 03:18:29
Eccentricity: 0.0031827
inclination: 74.0344°
perigee height: 573 km
apogee height: 618 km
right ascension of ascending node: 298.5905°
argument of perigee: 282.0826°
revolutions per day: 14.90666016
mean anomaly at epoch: 77.6790°
orbit number at epoch: 81890

The dashed part of the orbit path shows where the satellite is in the earth's shadow,  

DLR